ANA474 ROAH-RJTT

Flight info

Callsign ANA474
Flight time 1h 50m
Altitude 33000
Route AMAMI Y574 SHIBK Y57 SUKBO Y571 BILLY Y21 AKSEL
Aircraft B772/H-SDE2E3FGHIJ5LORVWXY/LB1D1

Departure

Time 2026-04-24 11:40
Airport Naha International Airport (ROAH)

Arrival

Time 2026-04-24 13:30
Airport Tokyo Haneda International Airport (RJTT)
Time Latitude Longitude Altitude Speed Heading
2026-04-24 11:09 26.20830 127.64841 35 ft 0 kts 133°
2026-04-24 11:11 26.20836 127.64835 34 ft 2 kts 133°
2026-04-24 11:12 26.20846 127.64822 34 ft 2 kts 133°
2026-04-24 11:12 26.20856 127.64810 34 ft 2 kts 133°
2026-04-24 11:12 26.20866 127.64798 34 ft 2 kts 133°
2026-04-24 11:12 26.20876 127.64786 33 ft 2 kts 133°
2026-04-24 11:13 26.20887 127.64774 33 ft 2 kts 133°
2026-04-24 11:13 26.20897 127.64761 33 ft 2 kts 134°
2026-04-24 11:13 26.20908 127.64750 33 ft 2 kts 144°
2026-04-24 11:13 26.20921 127.64741 32 ft 2 kts 153°
2026-04-24 11:14 26.20934 127.64734 32 ft 2 kts 161°
2026-04-24 11:14 26.20949 127.64729 32 ft 2 kts 169°
2026-04-24 11:14 26.20964 127.64727 32 ft 2 kts 178°
2026-04-24 11:14 26.20979 127.64727 32 ft 2 kts 180°
2026-04-24 11:15 26.20994 127.64727 32 ft 2 kts 179°
2026-04-24 11:15 26.21009 127.64726 32 ft 2 kts 179°
2026-04-24 11:15 26.21014 127.64726 32 ft 0 kts 179°
2026-04-24 11:19 26.21013 127.64726 32 ft 1 kts 179°
2026-04-24 11:20 26.20987 127.64727 32 ft 6 kts 179°
2026-04-24 11:20 26.20921 127.64730 32 ft 12 kts 177°
2026-04-24 11:20 26.20822 127.64734 32 ft 16 kts 179°
2026-04-24 11:20 26.20695 127.64741 32 ft 19 kts 175°
2026-04-24 11:21 26.20549 127.64748 33 ft 22 kts 179°
2026-04-24 11:21 26.20392 127.64749 33 ft 19 kts 174°
2026-04-24 11:21 26.20270 127.64761 33 ft 15 kts 175°
2026-04-24 11:21 26.20159 127.64767 33 ft 16 kts 178°
2026-04-24 11:22 26.20033 127.64771 34 ft 19 kts 178°
2026-04-24 11:22 26.19896 127.64777 34 ft 20 kts 177°
2026-04-24 11:22 26.19749 127.64784 36 ft 20 kts 176°
2026-04-24 11:22 26.19600 127.64793 36 ft 22 kts 178°
2026-04-24 11:23 26.19432 127.64798 37 ft 25 kts 177°
2026-04-24 11:23 26.19255 127.64808 37 ft 25 kts 177°
2026-04-24 11:23 26.19071 127.64816 35 ft 24 kts 178°
2026-04-24 11:23 26.18911 127.64827 34 ft 23 kts 181°
2026-04-24 11:24 26.18747 127.64824 34 ft 23 kts 177°
2026-04-24 11:24 26.18572 127.64838 32 ft 27 kts 176°
2026-04-24 11:24 26.18380 127.64847 29 ft 26 kts 179°
2026-04-24 11:24 26.18269 127.64837 28 ft 15 kts 214°
2026-04-24 11:25 26.18244 127.64762 27 ft 2 kts 268°
2026-04-24 11:36 26.18243 127.64736 27 ft 7 kts 268°
2026-04-24 11:36 26.18277 127.64665 26 ft 14 kts 328°
2026-04-24 11:36 26.18371 127.64646 28 ft 3 kts 355°
2026-04-24 11:36 26.18382 127.64645 28 ft 2 kts 355°
2026-04-24 11:37 26.18391 127.64645 28 ft 0 kts 356°
2026-04-24 11:38 26.18403 127.64644 28 ft 3 kts 356°
2026-04-24 11:39 26.18410 127.64643 28 ft 1 kts 356°
2026-04-24 11:39 26.18455 127.64640 28 ft 18 kts 356°
2026-04-24 11:39 26.18940 127.64621 32 ft 119 kts 356°
2026-04-24 11:39 26.20075 127.64565 71 ft 198 kts 358°
2026-04-24 11:40 26.21516 127.64488 806 ft 219 kts 358°
2026-04-24 11:40 26.22925 127.64426 2404 ft 193 kts 357°
2026-04-24 11:40 26.24110 127.64374 3628 ft 166 kts 356°
2026-04-24 11:40 26.25194 127.64311 4449 ft 151 kts 346°
2026-04-24 11:41 26.26140 127.63854 4902 ft 154 kts 327°
2026-04-24 11:41 26.27174 127.63203 5001 ft 187 kts 327°
2026-04-24 11:41 26.28398 127.62431 5218 ft 213 kts 327°
2026-04-24 11:41 26.29732 127.61593 5670 ft 230 kts 326°
2026-04-24 11:42 26.31170 127.60688 6135 ft 248 kts 326°
2026-04-24 11:42 26.32719 127.59713 6788 ft 257 kts 326°
2026-04-24 11:42 26.34265 127.58744 7642 ft 258 kts 326°
2026-04-24 11:42 26.35852 127.57746 8326 ft 265 kts 325°
2026-04-24 11:43 26.37487 127.56718 8999 ft 273 kts 325°
2026-04-24 11:43 26.39146 127.55677 9742 ft 276 kts 325°
2026-04-24 11:43 26.40822 127.54623 10392 ft 284 kts 325°
2026-04-24 11:43 26.42595 127.53507 10794 ft 302 kts 326°
2026-04-24 11:44 26.44563 127.52473 11190 ft 323 kts 334°
2026-04-24 11:44 26.46742 127.51624 11687 ft 338 kts 336°
2026-04-24 11:44 26.48999 127.50780 12458 ft 342 kts 336°
2026-04-24 11:44 26.51267 127.49926 13273 ft 345 kts 336°
2026-04-24 11:45 26.53577 127.49106 14047 ft 353 kts 342°
2026-04-24 11:45 26.56028 127.48809 14773 ft 367 kts 357°
2026-04-24 11:45 26.58598 127.49249 15601 ft 379 kts 10°
2026-04-24 11:45 26.61168 127.50108 16382 ft 386 kts 13°
2026-04-24 11:46 26.63742 127.51012 17224 ft 389 kts 12°
2026-04-24 11:46 26.66323 127.51920 17938 ft 394 kts 13°
2026-04-24 11:46 26.69018 127.52867 18557 ft 403 kts 13°
2026-04-24 11:46 26.71640 127.53790 19136 ft 411 kts 13°
2026-04-24 11:47 26.74400 127.54762 19848 ft 416 kts 13°
2026-04-24 11:47 26.77179 127.55742 20494 ft 422 kts 13°
2026-04-24 11:47 26.80007 127.56740 21136 ft 427 kts 13°
2026-04-24 11:47 26.82882 127.57755 21740 ft 434 kts 13°
2026-04-24 11:48 26.85779 127.58777 22293 ft 441 kts 13°
2026-04-24 11:48 26.88730 127.59819 22848 ft 448 kts 13°
2026-04-24 11:48 26.91733 127.60881 23443 ft 453 kts 13°
2026-04-24 11:48 26.94759 127.61952 24060 ft 457 kts 12°
2026-04-24 11:49 26.97780 127.63023 24710 ft 460 kts 12°
2026-04-24 11:49 27.00870 127.64117 25317 ft 465 kts 12°
2026-04-24 11:49 27.03973 127.65218 25874 ft 470 kts 11°
2026-04-24 11:49 27.07081 127.66321 26414 ft 475 kts 11°
2026-04-24 11:50 27.10241 127.67443 26948 ft 479 kts 11°
2026-04-24 11:50 27.13482 127.68594 27449 ft 485 kts 11°
2026-04-24 11:50 27.16727 127.69783 27916 ft 493 kts 14°
2026-04-24 11:50 27.19878 127.71418 28384 ft 507 kts 24°
2026-04-24 11:51 27.22885 127.73636 28784 ft 520 kts 33°
2026-04-24 11:51 27.25644 127.76407 29266 ft 529 kts 42°
2026-04-24 11:51 27.28185 127.79348 29976 ft 528 kts 42°
2026-04-24 11:51 27.30765 127.82367 30824 ft 524 kts 42°
2026-04-24 11:52 27.33254 127.85277 31574 ft 521 kts 43°
2026-04-24 11:52 27.35586 127.88447 32247 ft 524 kts 50°
2026-04-24 11:52 27.37750 127.91735 32831 ft 525 kts 50°
2026-04-24 11:52 27.39935 127.95084 33003 ft 528 kts 50°
2026-04-24 11:53 27.44355 128.01869 33026 ft 547 kts 51°
2026-04-24 11:53 27.46641 128.05382 33010 ft 558 kts 50°
2026-04-24 11:53 27.48972 128.08968 33008 ft 568 kts 50°
2026-04-24 11:54 27.53717 128.16278 33015 ft 575 kts 50°
2026-04-24 11:54 27.58432 128.23560 33003 ft 573 kts 51°
2026-04-24 11:55 27.63155 128.30864 33014 ft 574 kts 51°
2026-04-24 11:55 27.67842 128.38126 33003 ft 574 kts 51°
2026-04-24 11:56 27.72559 128.45445 33014 ft 576 kts 51°
2026-04-24 11:57 27.77583 128.53255 33009 ft 577 kts 51°
2026-04-24 11:57 27.82279 128.60568 33007 ft 575 kts 51°
2026-04-24 11:58 27.86980 128.67900 32988 ft 578 kts 52°
2026-04-24 11:58 27.89364 128.71622 33101 ft 585 kts 52°
2026-04-24 11:58 27.91750 128.75351 33743 ft 585 kts 51°
2026-04-24 11:59 27.96053 128.82089 35463 ft 572 kts 51°
2026-04-24 11:59 27.98377 128.85733 36173 ft 569 kts 51°
2026-04-24 11:59 28.00708 128.89388 36620 ft 571 kts 51°
2026-04-24 12:00 28.03062 128.93080 36931 ft 574 kts 51°
2026-04-24 12:00 28.05418 128.96780 36990 ft 577 kts 51°
2026-04-24 12:00 28.10178 129.04265 36990 ft 580 kts 51°
2026-04-24 12:01 28.14971 129.11810 36985 ft 594 kts 50°
2026-04-24 12:01 28.19803 129.19435 36987 ft 597 kts 51°
2026-04-24 12:02 28.24623 129.27058 36991 ft 594 kts 51°
2026-04-24 12:02 28.29455 129.34709 36987 ft 597 kts 51°
2026-04-24 12:03 28.34316 129.42423 36987 ft 597 kts 51°
2026-04-24 12:03 28.39175 129.50143 36987 ft 599 kts 50°
2026-04-24 12:04 28.43214 129.58446 36990 ft 604 kts 67°
2026-04-24 12:04 28.45311 129.67709 36960 ft 604 kts 83°
2026-04-24 12:05 28.46388 129.77125 36971 ft 601 kts 85°
2026-04-24 12:05 28.47426 129.86632 36965 ft 602 kts 84°
2026-04-24 12:06 28.48444 129.96054 36963 ft 606 kts 84°
2026-04-24 12:06 28.49465 130.05541 36963 ft 602 kts 84°
2026-04-24 12:07 28.51600 130.14766 36965 ft 604 kts 66°
2026-04-24 12:07 28.55640 130.23076 36967 ft 597 kts 52°
2026-04-24 12:08 28.60341 130.30855 36959 ft 596 kts 51°
2026-04-24 12:08 28.65104 130.38719 36955 ft 604 kts 51°
2026-04-24 12:09 28.69853 130.46585 36959 ft 602 kts 52°
2026-04-24 12:09 28.74597 130.54460 36959 ft 602 kts 51°
2026-04-24 12:10 28.79359 130.62373 36958 ft 601 kts 52°
2026-04-24 12:11 28.86442 130.74170 36944 ft 601 kts 52°
2026-04-24 12:11 28.91207 130.82124 36939 ft 604 kts 52°
2026-04-24 12:12 28.95912 130.89996 36944 ft 602 kts 52°
2026-04-24 12:12 29.00654 130.97945 36949 ft 603 kts 52°
2026-04-24 12:13 29.05394 131.05904 36944 ft 603 kts 53°
2026-04-24 12:13 29.10106 131.13832 36954 ft 604 kts 53°
2026-04-24 12:14 29.14833 131.21802 36948 ft 602 kts 52°
2026-04-24 12:14 29.19622 131.29730 36939 ft 604 kts 47°
2026-04-24 12:15 29.24951 131.37167 36950 ft 599 kts 46°
2026-04-24 12:15 29.30322 131.44577 36942 ft 600 kts 46°
2026-04-24 12:16 29.35668 131.51965 36939 ft 601 kts 46°
2026-04-24 12:16 29.40993 131.59337 36942 ft 600 kts 46°
2026-04-24 12:17 29.46356 131.66772 36921 ft 604 kts 46°
2026-04-24 12:17 29.51697 131.74196 36910 ft 602 kts 46°
2026-04-24 12:18 29.57036 131.81627 36918 ft 602 kts 46°
2026-04-24 12:18 29.62396 131.89101 36914 ft 605 kts 46°
2026-04-24 12:19 29.67761 131.96597 36906 ft 603 kts 46°
2026-04-24 12:19 29.73076 132.04034 36896 ft 605 kts 47°
2026-04-24 12:20 29.78452 132.11574 36899 ft 605 kts 46°
2026-04-24 12:20 29.83803 132.19090 36899 ft 606 kts 46°
2026-04-24 12:21 29.89158 132.26627 36901 ft 606 kts 46°
2026-04-24 12:21 29.94537 132.34210 36901 ft 607 kts 46°
2026-04-24 12:22 29.99879 132.41759 36913 ft 605 kts 47°
2026-04-24 12:22 30.05234 132.49338 36921 ft 608 kts 46°
2026-04-24 12:23 30.10588 132.56931 36928 ft 607 kts 46°
2026-04-24 12:23 30.15946 132.64545 36923 ft 605 kts 46°
2026-04-24 12:24 30.21248 132.72090 36901 ft 609 kts 46°
2026-04-24 12:24 30.26615 132.79746 36909 ft 605 kts 47°
2026-04-24 12:25 30.31967 132.87279 36907 ft 607 kts 46°
2026-04-24 12:25 30.37478 132.94771 36909 ft 608 kts 45°
2026-04-24 12:26 30.42978 133.02255 36914 ft 608 kts 45°
2026-04-24 12:26 30.48513 133.09801 36916 ft 608 kts 45°
2026-04-24 12:27 30.53982 133.17271 36919 ft 608 kts 45°
2026-04-24 12:27 30.59473 133.24785 36923 ft 609 kts 45°
2026-04-24 12:28 30.64955 133.32303 36926 ft 606 kts 45°
2026-04-24 12:28 30.70340 133.39706 36932 ft 594 kts 45°
2026-04-24 12:29 30.75707 133.47092 36935 ft 600 kts 45°
2026-04-24 12:29 30.81145 133.54585 36937 ft 609 kts 45°
2026-04-24 12:30 30.86648 133.62187 36943 ft 612 kts 45°
2026-04-24 12:30 30.92119 133.69762 36922 ft 609 kts 46°
2026-04-24 12:31 30.97629 133.77402 36924 ft 613 kts 46°
2026-04-24 12:31 31.03118 133.85033 36936 ft 611 kts 45°
2026-04-24 12:32 31.08646 133.92728 36935 ft 614 kts 45°
2026-04-24 12:32 31.14117 134.00365 36926 ft 610 kts 46°
2026-04-24 12:33 31.19560 134.07973 36935 ft 612 kts 45°
2026-04-24 12:33 31.25041 134.15651 36935 ft 613 kts 45°
2026-04-24 12:34 31.30495 134.23305 36955 ft 612 kts 46°
2026-04-24 12:34 31.35952 134.30980 36945 ft 612 kts 46°
2026-04-24 12:35 31.41408 134.38667 36956 ft 614 kts 45°
2026-04-24 12:35 31.46843 134.46343 36951 ft 612 kts 45°
2026-04-24 12:36 31.52297 134.54059 36957 ft 613 kts 46°
2026-04-24 12:36 31.57782 134.61833 36965 ft 614 kts 45°
2026-04-24 12:37 31.63222 134.69562 36941 ft 612 kts 46°
2026-04-24 12:37 31.68674 134.77322 36942 ft 614 kts 46°
2026-04-24 12:38 31.74100 134.85062 36947 ft 613 kts 46°
2026-04-24 12:38 31.79523 134.92812 36956 ft 615 kts 46°
2026-04-24 12:39 31.90392 135.08394 36963 ft 614 kts 46°
2026-04-24 12:40 31.95788 135.16153 36965 ft 616 kts 47°
2026-04-24 12:40 32.01194 135.23943 36970 ft 614 kts 46°
2026-04-24 12:41 32.06652 135.31822 36973 ft 616 kts 46°
2026-04-24 12:41 32.12029 135.39603 36963 ft 615 kts 46°
2026-04-24 12:42 32.17455 135.47469 36974 ft 618 kts 47°
2026-04-24 12:42 32.22827 135.55360 36975 ft 615 kts 49°
2026-04-24 12:43 32.28037 135.63481 36974 ft 618 kts 49°
2026-04-24 12:43 32.33258 135.71664 36953 ft 620 kts 49°
2026-04-24 12:44 32.38426 135.79782 36955 ft 617 kts 49°
2026-04-24 12:44 32.43602 135.87927 36962 ft 620 kts 50°
2026-04-24 12:45 32.48786 135.96106 36972 ft 619 kts 50°
2026-04-24 12:45 32.54019 136.04376 36977 ft 621 kts 49°
2026-04-24 12:46 32.59187 136.12563 36985 ft 622 kts 49°
2026-04-24 12:46 32.64366 136.20785 36988 ft 621 kts 50°
2026-04-24 12:47 32.69538 136.29015 36999 ft 625 kts 49°
2026-04-24 12:47 32.74754 136.37334 37003 ft 620 kts 50°
2026-04-24 12:48 32.79843 136.45471 37006 ft 611 kts 50°
2026-04-24 12:48 32.84945 136.53642 37015 ft 612 kts 50°
2026-04-24 12:49 32.90005 136.61763 37023 ft 612 kts 50°
2026-04-24 12:49 32.95080 136.69926 37007 ft 614 kts 51°
2026-04-24 12:50 33.00170 136.78130 37008 ft 615 kts 51°
2026-04-24 12:50 33.05294 136.86404 37012 ft 628 kts 51°
2026-04-24 12:51 33.10474 136.94795 37013 ft 616 kts 51°
2026-04-24 12:51 33.15517 137.02983 37012 ft 611 kts 51°
2026-04-24 12:52 33.20558 137.11182 37013 ft 610 kts 51°
2026-04-24 12:52 33.25606 137.19409 37019 ft 612 kts 51°
2026-04-24 12:53 33.30613 137.27589 37021 ft 609 kts 50°
2026-04-24 12:53 33.35638 137.35815 37032 ft 610 kts 51°
2026-04-24 12:54 33.40657 137.44051 37041 ft 612 kts 50°
2026-04-24 12:54 33.45633 137.52235 37045 ft 611 kts 50°
2026-04-24 12:55 33.50670 137.60535 37046 ft 611 kts 51°
2026-04-24 12:55 33.55655 137.68768 37019 ft 613 kts 52°
2026-04-24 12:56 33.60655 137.77046 37030 ft 612 kts 52°
2026-04-24 12:56 33.65650 137.85335 37032 ft 613 kts 51°
2026-04-24 12:57 33.70654 137.93654 37035 ft 611 kts 51°
2026-04-24 12:57 33.75620 138.01929 37047 ft 614 kts 51°
2026-04-24 12:58 33.80603 138.10251 37050 ft 614 kts 51°
2026-04-24 12:58 33.85619 138.18646 37058 ft 618 kts 51°
2026-04-24 12:59 33.90563 138.27028 37053 ft 614 kts 55°
2026-04-24 12:59 33.94759 138.36028 37018 ft 617 kts 61°
2026-04-24 12:59 33.96773 138.40550 36569 ft 609 kts 60°
2026-04-24 13:00 33.98786 138.45081 35866 ft 611 kts 60°
2026-04-24 13:00 34.00795 138.49606 35043 ft 614 kts 60°
2026-04-24 13:00 34.02792 138.54109 34079 ft 616 kts 61°
2026-04-24 13:00 34.04797 138.58638 33093 ft 614 kts 61°
2026-04-24 13:01 34.06820 138.63216 32167 ft 611 kts 60°
2026-04-24 13:01 34.08828 138.67761 31212 ft 609 kts 61°
2026-04-24 13:01 34.10813 138.72264 30172 ft 601 kts 61°
2026-04-24 13:01 34.12732 138.76623 29206 ft 588 kts 60°
2026-04-24 13:02 34.14627 138.80933 28279 ft 576 kts 61°
2026-04-24 13:02 34.16485 138.85164 27356 ft 564 kts 60°
2026-04-24 13:02 34.18289 138.89276 26446 ft 552 kts 60°
2026-04-24 13:02 34.20078 138.93356 25517 ft 541 kts 60°
2026-04-24 13:03 34.21827 138.97351 24725 ft 542 kts 60°
2026-04-24 13:03 34.23603 139.01407 23805 ft 544 kts 60°
2026-04-24 13:03 34.25358 139.05423 22875 ft 544 kts 60°
2026-04-24 13:03 34.27116 139.09451 22166 ft 536 kts 60°
2026-04-24 13:04 34.28724 139.13361 21804 ft 514 kts 65°
2026-04-24 13:04 34.30106 139.17281 21505 ft 493 kts 66°
2026-04-24 13:04 34.31399 139.21024 21140 ft 476 kts 66°
2026-04-24 13:04 34.32650 139.24654 21052 ft 452 kts 66°
2026-04-24 13:05 34.33818 139.28049 21074 ft 433 kts 66°
2026-04-24 13:05 34.34981 139.31426 21051 ft 426 kts 66°
2026-04-24 13:05 34.36109 139.34701 21060 ft 420 kts 66°
2026-04-24 13:05 34.37227 139.37955 21039 ft 419 kts 65°
2026-04-24 13:06 34.38402 139.41167 21043 ft 421 kts 59°
2026-04-24 13:06 34.39971 139.44165 20708 ft 421 kts 49°
2026-04-24 13:06 34.41806 139.46954 20269 ft 419 kts 47°
2026-04-24 13:06 34.43639 139.49681 19837 ft 416 kts 47°
2026-04-24 13:07 34.45472 139.52411 19393 ft 414 kts 47°
2026-04-24 13:07 34.47284 139.55112 18939 ft 412 kts 47°
2026-04-24 13:07 34.49079 139.57785 18476 ft 410 kts 47°
2026-04-24 13:07 34.50885 139.60480 18008 ft 407 kts 48°
2026-04-24 13:08 34.52674 139.63150 17570 ft 403 kts 47°
2026-04-24 13:08 34.54409 139.65744 17126 ft 395 kts 49°
2026-04-24 13:08 34.56131 139.68320 16713 ft 386 kts 48°
2026-04-24 13:09 34.59386 139.73195 15855 ft 358 kts 48°
2026-04-24 13:09 34.60928 139.75507 15479 ft 345 kts 48°
2026-04-24 13:09 34.62415 139.77736 15090 ft 334 kts 48°
2026-04-24 13:09 34.63849 139.79884 14785 ft 329 kts 48°
2026-04-24 13:10 34.65297 139.82053 14414 ft 329 kts 48°
2026-04-24 13:10 34.66740 139.84215 14043 ft 329 kts 47°
2026-04-24 13:10 34.68382 139.86116 13639 ft 322 kts 31°
2026-04-24 13:10 34.70259 139.87607 13223 ft 318 kts 27°
2026-04-24 13:11 34.72119 139.88979 12840 ft 312 kts 27°
2026-04-24 13:11 34.73975 139.90340 12485 ft 307 kts 28°
2026-04-24 13:11 34.75788 139.91673 12141 ft 302 kts 28°
2026-04-24 13:11 34.77561 139.92982 11984 ft 290 kts 28°
2026-04-24 13:12 34.79253 139.94237 11978 ft 277 kts 30°
2026-04-24 13:12 34.80652 139.95844 11955 ft 279 kts 55°
2026-04-24 13:12 34.81387 139.98044 11954 ft 284 kts 74°
2026-04-24 13:12 34.81762 140.00386 11963 ft 285 kts 79°
2026-04-24 13:13 34.82041 140.02777 11965 ft 284 kts 80°
2026-04-24 13:13 34.82303 140.05144 11946 ft 280 kts 80°
2026-04-24 13:13 34.82563 140.07506 11963 ft 282 kts 80°
2026-04-24 13:13 34.82831 140.09857 11963 ft 280 kts 77°
2026-04-24 13:14 34.83474 140.12061 11963 ft 277 kts 61°
2026-04-24 13:14 34.84389 140.14137 11961 ft 277 kts 58°
2026-04-24 13:14 34.85337 140.16179 11962 ft 277 kts 58°
2026-04-24 13:14 34.86486 140.18053 11859 ft 276 kts 37°
2026-04-24 13:15 34.88150 140.19162 11483 ft 272 kts 12°
2026-04-24 13:15 34.90013 140.19258 11097 ft 269 kts 347°
2026-04-24 13:15 34.91724 140.18365 10724 ft 268 kts 327°
2026-04-24 13:15 34.93267 140.17055 10357 ft 269 kts 325°
2026-04-24 13:16 34.94795 140.15720 9989 ft 271 kts 325°
2026-04-24 13:16 34.96331 140.14375 9612 ft 272 kts 325°
2026-04-24 13:16 34.97871 140.13026 9245 ft 273 kts 325°
2026-04-24 13:16 34.99422 140.11667 8875 ft 274 kts 326°
2026-04-24 13:17 35.00983 140.10298 8480 ft 275 kts 326°
2026-04-24 13:17 35.02523 140.08946 8108 ft 272 kts 326°
2026-04-24 13:17 35.04070 140.07587 7731 ft 269 kts 326°
2026-04-24 13:17 35.05586 140.06256 7351 ft 266 kts 326°
2026-04-24 13:18 35.07081 140.04942 6973 ft 264 kts 326°
2026-04-24 13:18 35.08561 140.03641 6602 ft 262 kts 326°
2026-04-24 13:18 35.10036 140.02342 6222 ft 260 kts 326°
2026-04-24 13:18 35.11504 140.01050 5991 ft 252 kts 326°
2026-04-24 13:19 35.12872 139.99843 5965 ft 238 kts 327°
2026-04-24 13:19 35.14182 139.98673 5963 ft 224 kts 322°
2026-04-24 13:19 35.15156 139.97221 5951 ft 222 kts 302°
2026-04-24 13:19 35.15811 139.95497 5802 ft 222 kts 297°
2026-04-24 13:20 35.16410 139.93758 5840 ft 224 kts 296°
2026-04-24 13:20 35.16999 139.91995 5915 ft 224 kts 296°
2026-04-24 13:20 35.17589 139.90222 5992 ft 224 kts 296°
2026-04-24 13:20 35.18176 139.88458 6007 ft 224 kts 296°
2026-04-24 13:21 35.18761 139.86694 6007 ft 223 kts 296°
2026-04-24 13:21 35.19340 139.84949 6001 ft 214 kts 296°
2026-04-24 13:21 35.19893 139.83284 6022 ft 205 kts 297°
2026-04-24 13:21 35.20657 139.81874 6013 ft 196 kts 321°
2026-04-24 13:22 35.21833 139.81039 5821 ft 195 kts 343°
2026-04-24 13:22 35.23137 139.80553 5578 ft 193 kts 346°
2026-04-24 13:22 35.24427 139.80127 5358 ft 190 kts 348°
2026-04-24 13:22 35.25708 139.79719 5147 ft 187 kts 348°
2026-04-24 13:23 35.26962 139.79323 4946 ft 184 kts 348°
2026-04-24 13:23 35.28191 139.78932 4754 ft 182 kts 348°
2026-04-24 13:23 35.29436 139.78536 4558 ft 184 kts 349°
2026-04-24 13:23 35.30679 139.78145 4355 ft 183 kts 353°
2026-04-24 13:24 35.31909 139.78253 4154 ft 176 kts 24°
2026-04-24 13:24 35.32999 139.78944 3978 ft 177 kts 32°
2026-04-24 13:24 35.34043 139.79730 3807 ft 175 kts 34°
2026-04-24 13:24 35.35077 139.80533 3630 ft 175 kts 34°
2026-04-24 13:25 35.36103 139.81328 3450 ft 173 kts 34°
2026-04-24 13:25 35.37127 139.82121 3272 ft 172 kts 34°
2026-04-24 13:25 35.38141 139.82907 3096 ft 171 kts 35°
2026-04-24 13:25 35.39141 139.83684 2921 ft 171 kts 35°
2026-04-24 13:26 35.40146 139.84464 2724 ft 169 kts 35°
2026-04-24 13:26 35.41221 139.85065 2519 ft 171 kts 13°
2026-04-24 13:26 35.42387 139.85147 2323 ft 160 kts
2026-04-24 13:26 35.43507 139.85149 2141 ft 158 kts
2026-04-24 13:27 35.44548 139.85020 1968 ft 148 kts 344°
2026-04-24 13:27 35.45435 139.84364 1818 ft 148 kts 335°
2026-04-24 13:27 35.46335 139.83719 1631 ft 149 kts 338°
2026-04-24 13:27 35.47240 139.83090 1446 ft 147 kts 337°
2026-04-24 13:28 35.48129 139.82461 1265 ft 147 kts 336°
2026-04-24 13:28 35.49027 139.81830 1082 ft 147 kts 336°
2026-04-24 13:28 35.49906 139.81209 890 ft 146 kts 335°
2026-04-24 13:28 35.50782 139.80592 702 ft 145 kts 335°
2026-04-24 13:29 35.51660 139.79982 491 ft 145 kts 335°
2026-04-24 13:29 35.52534 139.79362 303 ft 143 kts 333°
2026-04-24 13:29 35.53402 139.78742 129 ft 144 kts 334°
2026-04-24 13:29 35.54238 139.78159 22 ft 121 kts 327°
2026-04-24 13:30 35.54808 139.77753 29 ft 60 kts 329°
2026-04-24 13:30 35.55138 139.77524 35 ft 47 kts 329°
2026-04-24 13:30 35.55394 139.77370 37 ft 34 kts 347°
2026-04-24 13:30 35.55528 139.77353 39 ft 9 kts 358°
2026-04-24 13:31 35.55624 139.77351 39 ft 17 kts
2026-04-24 13:31 35.55750 139.77335 37 ft 20 kts 332°
2026-04-24 13:31 35.55850 139.77341 35 ft 15 kts 54°
2026-04-24 13:31 35.55914 139.77480 33 ft 20 kts 59°
2026-04-24 13:32 35.55994 139.77649 32 ft 22 kts 60°
2026-04-24 13:32 35.56077 139.77829 33 ft 26 kts 60°
2026-04-24 13:32 35.56168 139.78026 32 ft 21 kts 62°
2026-04-24 13:32 35.56241 139.78175 30 ft 22 kts 58°
2026-04-24 13:33 35.56326 139.78352 22 ft 18 kts 60°
2026-04-24 13:33 35.56319 139.78465 20 ft 15 kts 146°
2026-04-24 13:33 35.56210 139.78543 20 ft 19 kts 151°
2026-04-24 13:33 35.56077 139.78635 21 ft 23 kts 150°
2026-04-24 13:34 35.55957 139.78720 22 ft 18 kts 150°
2026-04-24 13:34 35.55862 139.78787 22 ft 13 kts 149°
2026-04-24 13:34 35.55765 139.78857 22 ft 16 kts 150°
2026-04-24 13:34 35.55654 139.78934 22 ft 19 kts 149°
2026-04-24 13:35 35.55570 139.78993 21 ft 5 kts 150°
2026-04-24 13:35 35.55568 139.78995 21 ft 0 kts 150°
2026-04-24 13:38 35.55567 139.78996 21 ft 1 kts 150°
2026-04-24 13:38 35.55565 139.78998 21 ft 0 kts 151°
2026-04-24 13:38 35.55540 139.79015 21 ft 8 kts 149°
2026-04-24 13:39 35.55479 139.79051 21 ft 10 kts 177°
2026-04-24 13:39 35.55421 139.78984 24 ft 13 kts 239°
2026-04-24 13:39 35.55357 139.78931 27 ft 12 kts 171°
2026-04-24 13:39 35.55279 139.78979 26 ft 11 kts 167°
2026-04-24 13:40 35.55229 139.78952 26 ft 2 kts 235°
2026-04-24 13:40 35.55221 139.78935 27 ft 0 kts 242°